Location: Village de las Huertas
(35.3014°N, 106.4095°W)
Time: 09:18:32
(UTC+00:00)

Cosmos 1626 Rocket - Pass Details

Date: 29 October 2020
Orbit: 602 x 632 km, 82.5° (Epoch: 05 December)

Event Time Altitude Azimuth Distance (km) Brightness Sun altitude
Rises 12:38:08 0° 192° (SSW) 2,901 7.0 -10.1°
Reaches altitude 10° 12:40:22 10° 195° (SSW) 2,001 6.1 -9.7°
Maximum altitude 12:44:47 65° 278° (W) 694 3.6 -8.8°
Drops below altitude 10° 12:49:14 10° 0° (N) 2,019 6.1 -7.9°
Sets 12:51:30 0° 4° (N) 2,931 6.9 -7.4°
